FW1714 Weather Reports


Display with metric or nautical units.
time (UTC)temp
F
wind
direction
speed
MPH
gust
MPH
rain 1hr
in
rain 24hr
in
rain mn
in
humidity
%
barometer
mb
20210620162332 73 127 0.0 4.0 0.00 0.04 0.00 36 1027.6
20210620161830 73 106 1.0 5.0 0.00 0.04 0.00 39 1027.8
20210620161333 73 157 2.0 5.0 0.00 0.04 0.00 38 1027.7
20210620160831 73 138 2.0 6.0 0.00 0.04 0.00 37 1027.7
20210620160314 73 119 1.0 3.0 0.00 0.04 0.00 41 1027.8
20210620155815 73 132 0.0 3.0 0.00 0.04 0.00 39 1027.9
20210620155328 72 139 1.0 11.0 0.00 0.04 0.00 40 1027.9
20210620154826 72 133 2.0 11.0 0.00 0.04 0.00 41 1027.9
20210620154319 72 109 2.0 8.0 0.00 0.04 0.00 38 1027.9
20210620153817 72 134 3.0 8.0 0.00 0.04 0.00 37 1028.1
20210620153326 72 153 0.0 7.0 0.00 0.04 0.00 39 1027.9
20210620152824 72 138 2.0 7.0 0.00 0.04 0.00 38 1028.0
20210620152326 73 122 2.0 7.0 0.00 0.04 0.00 40 1028.1
20210620151824 72 106 1.0 4.0 0.00 0.04 0.00 39 1028.1
20210620151327 72 121 1.0 4.0 0.00 0.04 0.00 41 1028.0
20210620150823 72 126 1.0 4.0 0.00 0.04 0.00 40 1028.0
20210620150326 71 94 1.0 3.0 0.00 0.04 0.00 41 1027.9
20210620145828 71 99 0.0 2.0 0.00 0.04 0.00 43 1028.1
20210620145321 70 99 0.0 6.0 0.00 0.04 0.00 40 1028.0
20210620144818 70 99 0.0 6.0 0.00 0.04 0.00 47 1028.1
20210620144332 69 117 2.0 5.0 0.00 0.04 0.00 44 1027.9
20210620143829 69 103 1.0 3.0 0.00 0.04 0.00 45 1027.9
20210620143322 69 108 1.0 3.0 0.00 0.04 0.00 47 1027.8
20210620142820 69 118 0.0 3.0 0.00 0.04 0.00 48 1027.8
20210620142323 68 118 1.0 3.0 0.00 0.04 0.00 48 1027.8
20210620141821 68 126 0.0 5.0 0.00 0.04 0.00 46 1027.8
20210620141324 68 126 2.0 5.0 0.00 0.04 0.00 46 1027.7
20210620140821 68 146 3.0 5.0 0.00 0.04 0.00 48 1027.6
20210620140328 67 90 1.0 3.0 0.00 0.04 0.00 51 1027.6
20210620135826 67 192 0.0 0.0 0.00 0.04 0.00 53 1027.4
20210620135320 67 193 0.0 2.0 0.00 0.04 0.00 54 1027.4
20210620134816 67 193 0.0 3.0 0.00 0.04 0.00 54 1027.3
20210620134329 67 193 0.0 3.0 0.00 0.04 0.00 55 1027.4
20210620133827 67 193 1.0 3.0 0.00 0.04 0.00 54 1027.1
20210620133320 67 238 0.0 2.0 0.00 0.04 0.00 54 1027.2
20210620132817 67 238 0.0 2.0 0.00 0.04 0.00 53 1026.8
20210620132319 67 238 0.0 2.0 0.00 0.04 0.00 52 1026.9
20210620131817 67 238 0.0 2.0 0.00 0.04 0.00 52 1026.7
20210620131320 67 238 0.0 2.0 0.00 0.04 0.00 51 1026.6
20210620130822 67 238 0.0 2.0 0.00 0.04 0.00 50 1026.6
20210620130325 68 238 0.0 4.0 0.00 0.04 0.00 51 1026.6
20210620125822 68 238 1.0 6.0 0.00 0.04 0.00 51 1026.5
20210620125315 70 258 3.0 6.0 0.00 0.04 0.00 48 1026.5
20210620124813 71 118 0.0 4.0 0.00 0.04 0.00 48 1026.4
20210620124326 73 95 1.0 4.0 0.00 0.04 0.00 45 1026.2
20210620123823 75 133 1.0 5.0 0.00 0.04 0.00 39 1026.0
20210620123316 76 167 1.0 8.0 0.00 0.04 0.00 31 1025.8
20210620122833 76 340 4.0 11.0 0.00 0.04 0.00 28 1025.3
20210620122317 76 317 5.0 12.0 0.00 0.04 0.00 28 1025.2
20210620121814 76 315 4.0 12.0 0.00 0.04 0.00 28 1024.9
20210620121321 76 200 5.0 11.0 0.00 0.04 0.00 27 1024.7
20210620120818 77 330 4.0 11.0 0.00 0.04 0.00 27 1024.5
20210620120322 76 193 6.0 11.0 0.00 0.04 0.00 27 1024.4
20210620115819 76 252 5.0 15.0 0.00 0.04 0.00 26 1024.3
20210620115332 77 314 7.0 15.0 0.00 0.04 0.00 27 1024.3
20210620114830 77 288 5.0 12.0 0.00 0.04 0.00 27 1024.2
20210620114323 77 218 5.0 12.0 0.00 0.04 0.00 26 1024.3
20210620113821 77 229 4.0 11.0 0.00 0.04 0.00 26 1024.2
20210620113314 78 253 5.0 11.0 0.00 0.04 0.00 25 1024.3
20210620112831 78 223 5.0 12.0 0.00 0.04 0.00 25 1024.1
20210620112315 78 229 7.0 13.0 0.00 0.04 0.00 25 1024.1
20210620111816 77 221 4.0 13.0 0.00 0.04 0.00 25 1024.0
20210620111319 77 254 4.0 10.0 0.00 0.04 0.00 25 1023.9
20210620110815 77 205 4.0 10.0 0.00 0.04 0.00 25 1023.7
20210620110318 76 251 5.0 10.0 0.00 0.04 0.00 26 1023.7
20210620105816 76 242 2.0 9.0 0.00 0.04 0.00 26 1023.8
20210620105329 76 240 3.0 9.0 0.00 0.04 0.00 26 1023.7
20210620104827 76 338 2.0 8.0 0.00 0.04 0.00 26 1023.7
20210620104320 76 218 3.0 8.0 0.00 0.04 0.00 27 1023.7
20210620103816 76 266 4.0 7.0 0.00 0.04 0.00 26 1023.7
20210620103329 76 266 4.0 10.0 0.00 0.04 0.00 26 1023.6
20210620102827 77 235 4.0 11.0 0.00 0.04 0.00 26 1023.6
20210620102313 77 223 6.0 11.0 0.00 0.04 0.00 26 1023.6
20210620101831 78 187 7.0 12.0 0.00 0.04 0.00 25 1023.6
20210620101332 78 254 6.0 13.0 0.00 0.04 0.00 25 1023.6
20210620100831 78 200 4.0 13.0 0.00 0.04 0.00 25 1023.5
20210620100313 78 340 5.0 11.0 0.00 0.04 0.00 25 1023.5
20210620095828 78 243 7.0 11.0 0.00 0.04 0.00 25 1023.5
20210620095321 77 265 4.0 11.0 0.00 0.04 0.00 25 1023.5
20210620094819 77 225 6.0 11.0 0.00 0.04 0.00 25 1023.4
20210620094333 77 283 6.0 11.0 0.00 0.04 0.00 26 1023.4
20210620093830 77 298 8.0 19.0 0.00 0.04 0.00 26 1023.4
20210620093323 77 238 8.0 19.0 0.00 0.04 0.00 26 1023.4
20210620092821 77 250 7.0 12.0 0.00 0.04 0.00 26 1023.4
20210620092328 76 252 5.0 12.0 0.00 0.04 0.00 27 1023.3
20210620091825 76 242 7.0 12.0 0.00 0.04 0.00 27 1023.5
20210620091328 76 249 5.0 11.0 0.00 0.04 0.00 27 1023.6
20210620090826 76 208 6.0 11.0 0.00 0.04 0.00 27 1023.6
20210620090329 76 287 6.0 12.0 0.00 0.04 0.00 27 1023.8
20210620085827 75 275 6.0 12.0 0.00 0.04 0.00 27 1023.8
20210620085320 75 251 5.0 10.0 0.00 0.04 0.00 27 1023.9
20210620084818 75 259 4.0 10.0 0.00 0.04 0.00 28 1023.9
20210620084331 75 281 6.0 10.0 0.00 0.04 0.00 28 1023.8
20210620083828 75 262 5.0 10.0 0.00 0.04 0.00 28 1023.9
20210620083321 75 198 4.0 10.0 0.00 0.04 0.00 28 1023.7
20210620082823 75 234 5.0 12.0 0.00 0.04 0.00 28 1023.7
20210620082325 75 251 5.0 12.0 0.00 0.04 0.00 28 1023.7
20210620081821 76 250 3.0 8.0 0.00 0.04 0.00 28 1024.0
20210620081324 76 221 3.0 10.0 0.00 0.04 0.00 28 1023.9
20210620080822 76 207 4.0 10.0 0.00 0.04 0.00 28 1024.0
20210620080326 76 242 4.0 10.0 0.00 0.04 0.00 27 1024.1
20210620075823 77 220 3.0 11.0 0.00 0.04 0.00 28 1024.1
20210620075315 77 266 5.0 11.0 0.00 0.04 0.00 27 1024.1
20210620074813 77 239 3.0 15.0 0.00 0.04 0.00 27 1024.0
20210620074326 78 271 4.0 15.0 0.00 0.04 0.00 26 1024.1
20210620073823 78 225 7.0 18.0 0.00 0.04 0.00 26 1024.2
20210620073320 78 239 7.0 18.0 0.00 0.04 0.00 26 1024.2
20210620072818 79 224 7.0 11.0 0.00 0.04 0.00 26 1024.2
20210620072321 79 248 5.0 17.0 0.00 0.04 0.00 25 1024.1
20210620071818 79 239 8.0 17.0 0.00 0.04 0.00 25 1024.0
20210620071322 79 263 6.0 17.0 0.00 0.04 0.00 25 1024.0
20210620070819 79 246 7.0 16.0 0.00 0.04 0.00 25 1023.9
20210620070323 79 203 7.0 16.0 0.00 0.04 0.00 25 1023.8
20210620065820 79 261 7.0 15.0 0.00 0.04 0.00 25 1023.8
20210620065333 79 216 6.0 13.0 0.00 0.04 0.00 26 1023.9
20210620064831 78 213 6.0 12.0 0.00 0.04 0.00 26 1023.8
20210620064324 78 186 8.0 13.0 0.00 0.04 0.00 26 1023.8
20210620063821 79 251 5.0 16.0 0.00 0.04 0.00 26 1023.8
20210620063318 79 225 5.0 16.0 0.00 0.04 0.00 25 1023.7
20210620062815 79 212 5.0 14.0 0.00 0.04 0.00 26 1023.6
20210620062319 79 264 7.0 14.0 0.00 0.04 0.00 26 1023.5
20210620061816 79 200 7.0 13.0 0.00 0.04 0.00 25 1023.5
20210620061318 79 213 6.0 15.0 0.00 0.04 0.04 26 1023.4
20210620060816 79 225 7.0 16.0 0.00 0.04 0.04 26 1023.5
20210620060320 79 260 5.0 15.0 0.00 0.04 0.04 26 1023.5
20210620055816 78 246 6.0 15.0 0.00 0.04 0.04 27 1023.4
20210620055329 77 220 5.0 11.0 0.00 0.04 0.04 28 1023.4
20210620054827 74 236 4.0 10.0 0.00 0.04 0.04 30 1023.4
20210620054320 71 192 3.0 8.0 0.00 0.04 0.04 35 1023.4
20210620053821 67 286 2.0 8.0 0.00 0.04 0.04 40 1023.5
20210620053314 65 312 2.0 8.0 0.00 0.04 0.04 44 1023.4
20210620052832 65 294 1.0 3.0 0.00 0.04 0.04 50 1023.5
20210620052315 65 309 0.0 1.0 0.00 0.04 0.04 52 1023.5
20210620051832 65 309 0.0 4.0 0.00 0.04 0.04 53 1023.6
20210620051315 65 309 0.0 5.0 0.00 0.04 0.04 53 1023.6
20210620050833 65 200 2.0 5.0 0.00 0.04 0.04 52 1023.7
20210620050315 65 245 0.0 2.0 0.00 0.04 0.04 51 1023.7
20210620045833 65 245 0.0 3.0 0.00 0.04 0.04 51 1024.0
20210620045326 66 245 0.0 3.0 0.00 0.04 0.04 49 1023.9
20210620044824 66 245 1.0 3.0 0.00 0.04 0.04 50 1024.1
20210620044321 66 245 0.0 3.0 0.00 0.04 0.04 49 1024.2
20210620043820 67 322 0.0 3.0 0.00 0.04 0.04 48 1024.1
20210620043333 67 314 0.0 2.0 0.00 0.04 0.04 48 1024.2
20210620042829 68 314 0.0 1.0 0.00 0.04 0.04 47 1024.3
20210620042332 68 314 0.0 2.0 0.00 0.04 0.04 46 1024.3
20210620041830 69 314 0.0 2.0 0.00 0.04 0.04 45 1024.2
20210620041333 69 314 0.0 3.0 0.00 0.04 0.04 44 1024.2
20210620040830 69 314 0.0 5.0 0.00 0.04 0.04 45 1024.1
20210620040333 70 314 2.0 5.0 0.00 0.04 0.04 44 1024.1
20210620035831 70 103 1.0 3.0 0.00 0.04 0.04 44 1024.1
20210620035324 71 103 0.0 3.0 0.00 0.04 0.04 42 1024.0
20210620034821 71 103 0.0 3.0 0.00 0.04 0.04 41 1024.0
20210620034317 72 109 0.0 1.0 0.00 0.04 0.04 42 1023.8
20210620033815 72 109 0.0 2.0 0.00 0.04 0.04 40 1023.6
20210620033328 73 109 1.0 2.0 0.00 0.04 0.04 40 1023.5
20210620032825 74 109 0.0 2.0 0.00 0.04 0.04 37 1023.6
20210620032328 74 109 0.0 2.0 0.00 0.04 0.04 36 1023.4
20210620031826 75 109 0.0 0.0 0.00 0.04 0.04 35 1023.5
20210620031329 76 109 0.0 0.0 0.00 0.04 0.04 34 1023.3
20210620030826 77 109 0.0 1.0 0.00 0.04 0.04 32 1023.4
20210620030329 77 109 0.0 3.0 0.00 0.04 0.04 32 1023.5
20210620025826 77 109 1.0 3.0 0.00 0.04 0.04 31 1023.5
20210620025319 78 115 1.0 3.0 0.00 0.04 0.04 30 1023.5
20210620024820 79 57 1.0 3.0 0.00 0.04 0.04 30 1023.6
20210620024333 79 50 0.0 10.0 0.00 0.04 0.04 29 1023.7
20210620023830 79 5 2.0 13.0 0.00 0.04 0.04 29 1023.6
20210620023323 79 271 2.0 14.0 0.00 0.04 0.04 29 1023.5
20210620022819 79 232 7.0 14.0 0.00 0.04 0.04 29 1023.3
20210620022322 79 197 7.0 15.0 0.00 0.04 0.04 29 1023.2
20210620021820 79 209 9.0 15.0 0.00 0.04 0.04 30 1023.3
20210620021323 79 250 7.0 17.0 0.00 0.04 0.04 30 1023.3
20210620020820 79 224 8.0 17.0 0.00 0.04 0.04 30 1023.3
20210620020323 79 239 7.0 20.0 0.00 0.04 0.04 30 1023.3
20210620015819 79 261 8.0 22.0 0.00 0.04 0.04 31 1023.4
20210620015316 79 355 10.0 22.0 0.00 0.04 0.04 30 1023.6
20210620014832 78 230 6.0 21.0 0.00 0.04 0.04 31 1023.6
20210620014326 78 301 8.0 17.0 0.00 0.04 0.04 31 1023.8
20210620013822 79 325 7.0 19.0 0.00 0.04 0.04 31 1023.8
20210620013315 79 292 7.0 19.0 0.00 0.04 0.04 31 1023.7
20210620012832 79 267 9.0 18.0 0.00 0.04 0.04 30 1024.1
20210620012314 80 274 10.0 21.0 0.00 0.04 0.04 30 1024.3
20210620011832 80 244 8.0 23.0 0.00 0.04 0.04 29 1024.6
20210620011315 81 333 12.0 24.0 0.00 0.04 0.04 29 1024.5
20210620010832 81 231 9.0 24.0 0.00 0.04 0.04 29 1024.4
20210620010315 81 49 11.0 20.0 0.00 0.04 0.04 28 1024.4
20210620005832 81 190 8.0 16.0 0.00 0.04 0.04 30 1024.4
20210620005329 81 254 4.0 11.0 0.00 0.04 0.04 30 1024.3
20210620004827 80 236 4.0 15.0 0.00 0.04 0.04 29 1024.4
20210620004320 81 182 4.0 15.0 0.00 0.04 0.04 29 1024.0
20210620003817 80 345 5.0 10.0 0.00 0.04 0.04 29 1024.0
20210620003330 80 240 4.0 13.0 0.00 0.04 0.04 28 1023.9
20210620002826 80 285 4.0 15.0 0.00 0.04 0.04 29 1023.7
20210620002329 80 202 6.0 15.0 0.00 0.04 0.04 30 1023.9
20210620001826 79 337 5.0 13.0 0.00 0.04 0.04 31 1023.9
20210620001329 79 233 2.0 12.0 0.00 0.04 0.04 34 1023.8
20210620000825 78 250 6.0 14.0 0.00 0.04 0.04 32 1024.4
20210620000330 77 188 6.0 14.0 0.00 0.04 0.04 40 1024.7
20210619235826 76 266 6.0 11.0 0.00 0.04 0.04 47 1024.7
20210619235323 76 202 2.0 5.0 0.00 0.04 0.04 52 1025.1
20210619234821 76 215 2.0 4.0 0.00 0.04 0.04 53 1025.6
20210619234313 76 287 1.0 2.0 0.00 0.04 0.04 53 1026.0
20210619233830 75 287 0.0 2.0 0.00 0.04 0.04 52 1026.2
20210619233324 75 287 0.0 2.0 0.00 0.04 0.04 51 1026.4
20210619232821 75 287 0.0 3.0 0.00 0.04 0.04 53 1026.5
20210619232324 74 243 1.0 3.0 0.00 0.04 0.04 52 1026.7
20210619231820 74 241 0.0 0.0 0.00 0.04 0.04 53 1026.6
20210619231323 74 241 0.0 2.0 0.00 0.04 0.04 51 1026.9
20210619230821 74 241 0.0 2.0 0.00 0.04 0.04 53 1027.2
20210619230324 74 146 0.0 2.0 0.00 0.04 0.04 51 1027.2
20210619225824 74 144 0.0 2.0 0.00 0.04 0.04 52 1027.0
20210619225318 74 144 0.0 1.0 0.00 0.04 0.04 57 1026.8
20210619224815 74 144 0.0 2.0 0.00 0.04 0.04 59 1026.7
20210619224328 74 144 1.0 3.0 0.00 0.04 0.04 57 1026.9
20210619223826 75 144 1.0 3.0 0.00 0.04 0.04 55 1026.8
20210619223318 75 144 1.0 3.0 0.00 0.04 0.04 53 1026.8
20210619222816 76 144 0.0 2.0 0.00 0.04 0.04 49 1026.9
20210619222320 76 144 0.0 5.0 0.03 0.04 0.04 50 1027.0
20210619221817 76 144 1.0 5.0 0.03 0.04 0.04 48 1027.0
20210619221320 76 131 0.0 5.0 0.03 0.04 0.04 50 1027.0
20210619220817 77 131 1.0 8.0 0.04 0.04 0.04 50 1026.8
20210619220324 77 144 1.0 9.0 0.04 0.04 0.04 51 1026.6
20210619215821 77 117 3.0 9.0 0.04 0.04 0.04 51 1026.5
20210619215313 77 99 2.0 7.0 0.04 0.04 0.04 50 1026.6
20210619214831 77 100 2.0 7.0 0.04 0.04 0.04 53 1026.7
20210619214324 78 88 1.0 6.0 0.04 0.04 0.04 61 1026.6
20210619213819 78 237 1.0 6.0 0.04 0.04 0.04 64 1026.7
20210619213332 78 142 1.0 5.0 0.04 0.04 0.04 64 1026.8
20210619212830 79 155 1.0 3.0 0.04 0.04 0.04 65 1027.0
20210619212333 79 355 0.0 9.0 0.01 0.01 0.01 55 1027.1
20210619211831 80 41 1.0 9.0 0.01 0.01 0.01 48 1027.2
20210619211313 81 294 1.0 6.0 0.00 0.00 0.00 50 1027.0
20210619210814 81 23 2.0 6.0 0.00 0.00 0.00 47 1027.3
20210619210317 80 313 3.0 8.0 0.00 0.00 0.00 41 1027.4
20210619205815 81 319 2.0 8.0 0.00 0.00 0.00 38 1027.3
20210619205328 81 340 1.0 6.0 0.00 0.00 0.00 37 1027.0
20210619204825 82 313 1.0 5.0 0.00 0.00 0.00 38 1026.8
20210619204317 83 327 2.0 11.0 0.00 0.00 0.00 36 1026.9
20210619203814 85 146 3.0 11.0 0.00 0.00 0.00 34 1026.8
20210619203326 86 144 2.0 5.0 0.00 0.00 0.00 36 1026.8
20210619202824 86 161 1.0 5.0 0.00 0.00 0.00 41 1026.8
20210619202327 87 149 2.0 5.0 0.00 0.00 0.00 40 1026.8
20210619201824 87 27 1.0 5.0 0.00 0.00 0.00 44 1026.7
20210619201327 86 123 2.0 5.0 0.00 0.00 0.00 44 1026.7
20210619200829 86 78 2.0 6.0 0.00 0.00 0.00 44 1026.8
20210619200331 86 83 1.0 4.0 0.00 0.00 0.00 42 1027.0
20210619195828 86 134 0.0 2.0 0.00 0.00 0.00 48 1027.0
20210619195320 85 134 1.0 4.0 0.00 0.00 0.00 46 1027.1
20210619194818 85 124 1.0 4.0 0.00 0.00 0.00 44 1027.1
20210619194330 85 175 0.0 3.0 0.00 0.00 0.00 45 1027.1
20210619193827 84 175 0.0 3.0 0.00 0.00 0.00 45 1027.2
20210619193320 83 192 0.0 2.0 0.00 0.00 0.00 47 1027.1
20210619192818 82 202 0.0 5.0 0.00 0.00 0.00 49 1027.2
20210619192321 82 202 0.0 5.0 0.00 0.00 0.00 49 1027.3
20210619191818 82 198 1.0 3.0 0.00 0.00 0.00 50 1027.2
20210619191326 82 198 0.0 3.0 0.00 0.00 0.00 49 1027.1
20210619190823 82 198 2.0 4.0 0.00 0.00 0.00 48 1027.0
20210619190326 82 198 0.0 4.0 0.00 0.00 0.00 47 1027.1
20210619185824 83 109 0.0 3.0 0.00 0.00 0.00 46 1027.1
20210619185317 83 151 0.0 3.0 0.00 0.00 0.00 43 1027.1
20210619184813 84 126 1.0 7.0 0.00 0.00 0.00 44 1027.1
20210619184326 84 115 2.0 7.0 0.00 0.00 0.00 42 1027.1
20210619183823 84 26 1.0 3.0 0.00 0.00 0.00 44 1027.2
20210619183314 83 138 0.0 3.0 0.00 0.00 0.00 42 1027.3
20210619182830 83 176 1.0 6.0 0.00 0.00 0.00 46 1027.3
20210619182333 82 215 1.0 6.0 0.00 0.00 0.00 49 1027.4
20210619181815 83 142 2.0 5.0 0.00 0.00 0.00 44 1027.5
20210619181318 82 115 0.0 3.0 0.00 0.00 0.00 50 1027.6
20210619180814 82 116 1.0 3.0 0.00 0.00 0.00 46 1027.6
20210619180317 81 180 1.0 3.0 0.00 0.00 0.00 45 1027.7
20210619175815 81 178 1.0 4.0 0.00 0.00 0.00 47 1027.9
20210619175328 81 127 1.0 4.0 0.00 0.00 0.00 45 1028.1
20210619174826 81 122 1.0 5.0 0.00 0.00 0.00 45 1028.1
20210619174318 81 249 1.0 5.0 0.00 0.00 0.00 48 1028.1
20210619173815 81 138 1.0 2.0 0.00 0.00 0.00 49 1028.1
20210619173328 80 138 0.0 4.0 0.00 0.00 0.00 47 1028.2
20210619172826 80 138 0.0 5.0 0.00 0.00 0.00 48 1028.3
20210619172329 80 139 2.0 5.0 0.00 0.00 0.00 49 1028.3
20210619171830 80 124 0.0 3.0 0.00 0.00 0.00 52 1028.3
20210619171332 80 123 1.0 4.0 0.00 0.00 0.00 50 1028.4
20210619170830 80 142 0.0 4.0 0.00 0.00 0.00 50 1028.3
20210619170333 79 140 0.0 3.0 0.00 0.00 0.00 50 1028.2
20210619165830 79 140 1.0 3.0 0.00 0.00 0.00 48 1028.2
20210619165322 79 146 1.0 2.0 0.00 0.00 0.00 50 1028.3
20210619164820 78 146 1.0 3.0 0.00 0.00 0.00 51 1028.3
20210619164333 78 157 1.0 3.0 0.00 0.00 0.00 50 1028.3
20210619163830 77 163 1.0 3.0 0.00 0.00 0.00 52 1028.3
20210619163323 77 138 0.0 4.0 0.00 0.00 0.00 54 1028.4
20210619162821 76 138 0.0 4.0 0.00 0.00 0.00 51 1028.3